Location: Newark
(42.9858°N, 0.6717°E)
Time: 18:28:21
(UTC+00:00)

Envisat - Pass Details

Date: 29 October 2019
Orbit: 764 x 766 km, 98.1° (Epoch: 22 November)

Event Time Altitude Azimuth Distance (km) Brightness Sun altitude
Rises 05:40:00 0° 30° (NNE) 3,240 6.5 -9.3°
Reaches altitude 10° 05:43:07 10° 50° (NE) 2,308 6.1 -8.7°
Maximum altitude 05:46:26 17° 91° (E) 1,843 6.3 -8.1°
Drops below altitude 10° 05:49:45 10° 132° (SE) 2,296 6.5 -7.5°
Sets 05:52:49 0° 152° (SSE) 3,216 6.9 -7.0°
